Location: Knobs
(40.8333°S, 175.2333°E)
Time: 01:48:19
(UTC+00:00)

Meteor 1-26 Rocket - Pass Details

Date: 12 June 2024
Orbit: 803 x 930 km, 81.3° (Epoch: 22 July)

Event Time Altitude Azimuth Distance (km) Brightness Sun altitude
Rises 18:23:22 0° 341° (NNW) 3,335 7.3 -14.2°
Reaches altitude 10° 18:25:45 10° 336° (NNW) 2,423 6.5 -13.7°
Maximum altitude 18:31:09 57° 257° (WSW) 991 4.2 -12.8°
Drops below altitude 10° 18:36:48 10° 178° (S) 2,531 6.5 -11.8°
Sets 18:39:21 0° 174° (S) 3,496 7.3 -11.3°
